Dalhart, TX

5:42 PM CDT on March 27, 2017 (GMT -0500)
Dalhart Municipal

Weather History for KDHT - April, 2013

Change the Weather History Date:

Sunday, April 7, 2013

  Actual Average Record
Temperature  
Mean Temperature 61 °F 51 °F  
Max Temperature 84 °F 67 °F 88 °F (1952)
Min Temperature 38 °F 35 °F 22 °F (2009)
Degree Days  
Heating Degree Days 4 14  
Month to date heating degree days 120 104  
Since 1 July heating degree days 3978 4358  
Cooling Degree Days 0 0  
Month to date cooling degree days 0 0  
Year to date cooling degree days 0 0  
Growing Degree Days 10 (Base 50)    
Moisture  
Dew Point 30 °F    
Average Humidity 43    
Maximum Humidity 76    
Minimum Humidity 10    
Precipitation  
Precipitation 0.00 in 0.03 in 0.24 in (1967)
Month to date precipitation T 0.23  
Year to date precipitation 0.86 2.32  
Snow  
Snow 0.00 in 0.10 in 1.00 in (1973)
Month to date snowfall T 0.5  
Since 1 July snowfall 21.6 18.2  
Snow Depth 0.00 in    
Sea Level Pressure  
Sea Level Pressure 29.64 in    
Wind  
Wind Speed 7 mph (SSW)    
Max Wind Speed 21 mph    
Max Gust Speed 25 mph    
Visibility 10 miles    
Events      
T = Trace of Precipitation, MM = Missing Value Source: NWS Daily Summary

Daily Weather History Graph

Daily Weather History Graph

Search for Another Location

Airport or City:

Trip Planner

Search our weather history database for the weather conditions in past years. The results will help you decide how hot, cold, wet, or windy it might be!

Date:

Astronomy

Apr. 07, 2013 Rise Set
Actual Time 7:27 AM CDT 8:17 PM CDT
Civil Twilight 7:01 AM CDT 8:43 PM CDT
Nautical Twilight 6:30 AM CDT 9:14 PM CDT
Astronomical Twilight 5:59 AM CDT 9:46 PM CDT
Moon 5:41 AM CDT (4/7) 5:55 PM CDT (4/7)
Length of Visible Light 13h 41m
Length of Day
12h 49m
Waning Crescent, 8% of the Moon is Illuminated
Apr 7
Waning Crescent
Apr 10
New
Apr 18
First Quarter
Apr 25
Full
May 2
Last Quarter

Hourly Weather History & Observations

Time (CDT) Temp. Windchill Dew Point Humidity Pressure Visibility Wind Dir Wind Speed Gust Speed Precip Events Conditions
12:53 AM 54.0 °F - 32.0 °F 43% 29.75 in 10.0 mi SSE 11.5 mph - N/A   Clear
1:53 AM 50.0 °F - 33.1 °F 52% 29.75 in 10.0 mi SSE 9.2 mph - N/A   Clear
2:53 AM 50.0 °F - 35.1 °F 57% 29.74 in 10.0 mi SSE 5.8 mph - N/A   Clear
3:53 AM 48.9 °F - 34.0 °F 56% 29.75 in 10.0 mi NW 10.4 mph - N/A   Clear
4:53 AM 46.0 °F 41.9 °F 34.0 °F 63% 29.76 in 10.0 mi North 8.1 mph - N/A   Clear
5:53 AM 46.9 °F - 34.0 °F 61% 29.73 in 10.0 mi Calm Calm - N/A   Clear
6:53 AM 46.0 °F 44.8 °F 35.1 °F 66% 29.73 in 10.0 mi East 3.5 mph - N/A   Clear
7:53 AM 39.9 °F 36.7 °F 32.0 °F 73% 29.74 in 10.0 mi South 4.6 mph - N/A   Clear
8:53 AM 51.1 °F - 36.0 °F 56% 29.73 in 10.0 mi SW 4.6 mph - N/A   Clear
9:53 AM 57.0 °F - 37.9 °F 49% 29.73 in 10.0 mi West 5.8 mph - N/A   Clear
10:53 AM 63.0 °F - 37.9 °F 40% 29.70 in 10.0 mi WSW 5.8 mph - N/A   Clear
11:53 AM 70.0 °F - 36.0 °F 29% 29.67 in 10.0 mi Variable 3.5 mph - N/A   Unknown
12:53 PM 75.0 °F - 28.0 °F 18% 29.64 in 10.0 mi Calm Calm - N/A   Clear
1:53 PM 77.0 °F - 26.1 °F 15% 29.62 in 10.0 mi West 8.1 mph - N/A   Clear
2:53 PM 78.1 °F - 27.0 °F 15% 29.60 in 10.0 mi SSE 4.6 mph - N/A   Clear
3:53 PM 81.0 °F - 24.1 °F 12% 29.55 in 10.0 mi SSW 11.5 mph 21.9 mph N/A   Partly Cloudy
4:53 PM 81.0 °F - 19.0 °F 10% 29.52 in 10.0 mi SW 9.2 mph 20.7 mph N/A   Clear
5:53 PM 80.1 °F - 19.9 °F 11% 29.51 in 10.0 mi SW 11.5 mph 20.7 mph N/A   Clear
6:53 PM 80.1 °F - 21.9 °F 12% 29.51 in 10.0 mi SW 11.5 mph - N/A   Clear
7:53 PM 73.0 °F - 26.1 °F 17% 29.53 in 10.0 mi SSW 8.1 mph - N/A   Clear
8:53 PM 61.0 °F - 26.1 °F 26% 29.54 in 10.0 mi SSW 8.1 mph - N/A   Clear
9:53 PM 57.0 °F - 25.0 °F 29% 29.55 in 10.0 mi SSW 9.2 mph - N/A   Clear
10:53 PM 57.9 °F - 24.1 °F 27% 29.55 in 10.0 mi Calm Calm - N/A   Clear
11:53 PM 55.9 °F - 28.0 °F 34% 29.52 in 10.0 mi North 3.5 mph - N/A   Clear